www.pogodaiklimat.ru

Погода и климат >> Архив погоды >> Монголия >> Биндэр


ПОГОДА в Биндэре

  • Прогноз погоды в Биндэре
  • Монитор погоды в Биндэре

АРХИВ ПОГОДЫ в Биндэре

Время (UTC), дата Ветер
(напр.,м/с)
 
Видим.   Явления Облачность Т
(С)
Тd
(С)
f
(%)
Тe
(С)
Тes
(С)
Комфортность P
(гПа)
Po
(гПа)
Тmin
(С)
Tmax
(С)
R
(мм)
R24
(мм)
S
(см)
18 16.08 штиль 0 н/о 1/0
[Ac lent]
+7.9 +5.2 83 +7 +7 1014.5 892.9
21 16.08 СЗ 2 н/о 1/0
[Ci]
+5.7 +4.2 90 +3 +3 1015.3 892.7
00 17.08 штиль 0 20 км ясно +10.8 +5.5 70 +10 +15 1013.4 893.1 +5.0
03 17.08 Ю 2 20 км 3/3 600 м
[Cb calv Ci ing]
+17.9 +7.5 51 +18 +27 1008.4 891.5
06 17.08 ЮЗ 3 20 км 8/3 600 м
[Cu med, cong Ac As Cc]
+19.6 +5.2 39 +20 +25 1006.1 890.0
09 17.08 Ю 2 20 км 8/3 600 м
[Cb calv Ac cast Ci fib]
+20.4 +5.8 38 +22 +24 комфорт 1004.6 889.0
12 17.08 штиль 0 20 км 9/8 600 м
[Cb cap Ac und]
+18.4 +9.2 55 +19 +19 1005.3 888.9 +21.4
15 17.08 З 2 н/о {ливн. осадки} 9/9 600 м
[Sc diur, vesp]
+13.5 +11.0 85 +13 +13 1007.8 889.2
18 17.08 С 1 н/о зарница {ливн. осадки} 9/8 600 м
[Cb calv As trans]
+12.8 +10.9 88 +13 +13 1008.2 889.3
21 17.08 З 2 н/о слаб. ливневой дождь 10/10 600 м
[Cb calv]
+12.7 +10.6 87 +12 +12 1009.3 890.2
00 18.08 СЗ 3 20 км {ливн. осадки} 8/6 600 м
[Cu Sc Ac As Cc]
+14.5 +10.4 76 +14 +14 1009.6 891.2 +12.0 4
03 18.08 С 4 20 км 5/4 600 м
[Cb calv Ac lent Cc]
+19.2 +7.9 48 +20 +24 1007.7 891.3
06 18.08 С 5 20 км 9/9 600 м
[Cb calv]
+19.3 +8.7 50 +20 +21 1006.7 890.5
09 18.08 С 4 20 км 5/4 600 м
[Cb calv Ac lent]
+20.0 +6.0 40 +21 +22 комфорт 1006.6 890.6
12 18.08 СЗ 3 20 км 9/3 600 м
[Cb calv Ac trans]
+16.0 +9.4 65 +16 +16 1010.0 892.1 +20.9
15 18.08 штиль 0 н/о 6/3 600 м
[Sc diur, vesp Ac trans Cc]
+12.5 +8.7 78 +12 +12 1013.0 893.4
18 18.08 С 2 н/о 8/0
[Ac lent]
+10.1 +7.8 86 +9 +9 1013.9 893.3
21 18.08 штиль 0 н/о 9/9 600 м
[Sc]
+10.3 +8.3 87 +10 +10 1013.5 892.9
00 19.08 штиль 0 20 км 10/10 600 м
[Sc]
+11.1 +8.7 85 +10 +10 1013.0 892.8 +9.6
03 19.08 штиль 0 2000 м слаб. дождь 10/10 600 м
[Frnb Ns]
+12.2 +9.6 84 +12 +12 1011.1 891.6
06 19.08 штиль 0 4000 м слаб. дождь 10/10 600 м
[Frnb Ns]
+13.3 +11.8 91 +13 +13 1007.4 890.4
09 19.08 З 2 20 км {дождь} 10/10 600 м
[Cu Sc]
+15.2 +11.6 79 +15 +15 1006.3 888.5
12 19.08 С 2 20 км {дождь} 9/8 600 м
[Cu Sc Ac As Cs]
+14.6 +12.1 85 +14 +14 1005.6 887.7 +16.7 8
15 19.08 СЗ 5 н/о 9/6 600 м
[Cu Sc Ac As Cs]
+12.9 +8.1 73 +11 +11 1004.2 888.4
18 19.08 СЗ 3 н/о 6/0
[Ac As]
+10.7 +6.9 77 +9 +9 1008.8 989.0
21 19.08 СЗ 5 н/о 5/3 600 м
[Sc Ac lent]
+11.4 +6.5 72 +9 +9 1008.2 888.7
00 20.08 СЗ 6 20 км 9/9 600 м
[Sc]
+13.3 +7.6 68 +11 +11 1008.0 889.3 +10.5
03 20.08 СЗ 7 20 км 10/6 600 м
[Cu hum As op]
+14.5 +6.8 60 +13 +13 1008.7 890.4
06 20.08 СЗ 9 20 км 9/3 600 м
[Cu hum Ac lent]
+16.1 +6.0 51 +14 +15 1008.7 891.0
09 20.08 СЗ 8 20 км 8/4 600 м
[Cu med, cong Ac lent Ci fib]
+17.1 +5.6 47 +16 +16 1009.4 892.0
12 20.08 СЗ 5 20 км 10/3 600 м
[Sc Ac lent Cs]
+13.5 +5.5 58 +12 +12 1013.2 893.9 +18.2
15 20.08 З 4 н/о 3/0
[Ci]
+10.7 +6.5 75 +8 +8 1015.0 894.4
18 20.08 СЗ 4 н/о ясно +10.9 +5.4 69 +9 +9 1015.3 894.8
21 20.08 З 3 н/о 6/4 600 м
[Sc Ac lent]
+11.0 +5.4 68 +9 +9 1015.4 894.9
00 21.08 СЗ 5 20 км 5/3 600 м
[Cu med, cong Ac lent]
+13.5 +5.4 58 +12 +13 1014.5 895.1 +9.3
03 21.08 СЗ 4 20 км 4/4 600 м
[Cu med, cong]
+15.2 +5.0 51 +14 +19 1012.3 894.9
06 21.08 СЗ 7 20 км 8/8 600 м
[Cu med, cong]
+18.3 +3.8 38 +18 +18 1011.6 894.4
09 21.08 С 5 20 км 5/5 600 м
[Cu med, cong]
+19.5 +3.3 34 +20 +21 1011.4 894.7
12 21.08 штиль 0 20 км 1/1 1000 м
[Cu hum]
+12.8 +5.8 62 +13 +13 1015.6 895.8 +19.6
15 21.08 З 4 н/о ясно +8.1 +4.3 77 +5 +5 1019.3 897.2
18 21.08 штиль 0 н/о ясно +6.0 +3.6 85 +5 +5 1020.7 897.6
21 21.08 штиль 0 н/о ясно +4.9 +3.3 89 +4 +4 1021.6 897.9
00 22.08 штиль 0 20 км 1/0
[Ci fib]
+10.4 +5.7 73 +10 +14 1020.3 899.0 +3.5
03 22.08 З 2 20 км 9/1 600 м
[Cu hum Cc]
+17.8 +4.9 43 +18 +27 1016.3 898.4
06 22.08 СЗ 2 20 км 9/1 600 м
[Cu hum Cs]
+20.3 +1.0 28 +21 +30 комфорт 1013.8 897.1
09 22.08 С 2 20 км 8/1 600 м
[Cu med, cong Ci]
+21.6 +3.6 31 +22 +25 комфорт 1012.9 896.7
12 22.08 З 3 20 км 4/1 600 м
[Cu hum Ac lent Ci]
+15.0 +8.8 66 +14 +14 1016.0 897.0 +22.7
15 22.08 З 2 н/о ясно +10.9 +6.5 74 +10 +10 1019.0 898.1
18 22.08 СЗ 2 н/о 1/0
[Ci fib]
+7.4 +4.9 84 +5 +5 1021.1 898.5
21 22.08 штиль 0 н/о 1/0
[Ci fib]
+6.0 +5.6 97 +5 +5 1020.8 898.9
00 23.08 штиль 0 20 км 1/0
[Ci fib]
+8.9 +6.5 85 +8 +12 1019.4 899.1 +4.6
03 23.08 штиль 0 20 км 1/0
[Ci fib]
+17.0 +8.2 56 +17 +32 опасность
простуды
1017.1 900.1
06 23.08 Ю 2 20 км 4/1 600 м
[Cb calv Ci]
+22.1 +9.8 46 +24 +34 комфорт 1012.7 898.2
09 23.08 Ю 3 20 км 9/3 600 м
[Cb calv Ac As Cs]
+23.2 +10.0 43 +25 +26 комфорт 1011.2 896.8
12 23.08 З 2 20 км 10/3 600 м
[Sc Ac As Cs]
+19.2 +9.5 53 +21 +21 комфорт 1012.1 895.2 +23.8

 

Местоположение метеостанции Биндэр (Монголия): широта 48.62 долгота 110.60 высота над уровнем моря 747 м.

В архиве по умолчанию представлена погода в Биндэре за последнюю неделю. Архивные данные за месяц целиком и за предыдущие месяцы, начиная с января 2011 года, Вы можете получить, выбрав интересующий диапазон дат из раскрывающегося списка и нажав кнопку "Ввод!".


*Определитесь, кто Вы:
робот инопланетянин человек

Внимание! Время в таблицах - всемирное. Для получения местного времени необходимо прибавить поправку, которая равна 8 ч.

Смотрите также архив погоды в соседних городах и на ближайших метеорологических станциях:

Погода в Татаале (Монголия) (67 км)
Погода в Букукуне (Забайкальский край, Россия) (99 км)
Погода в Кыре (Забайкальский край, Россия) (142 км)
Погода в Ундерхаане (Монголия) (145 км)
Погода в Баян-Ову (Монголия) (146 км)
Погода в Мензе (Забайкальский край, Россия) (159 км)
Погода в Мангуте (Забайкальский край, Россия) (189 км)
Погода в Черемхово (Забайкальский край, Россия) (221 км)
Погода в Красном Чикое (Забайкальский край, Россия) (238 км)
Погода в Улыгайин Дуганг (Монголия) (248 км)

Пояснения к столбцам:

Ветер - указаны скорость ветра в м/с - средняя за 10 мин, порывы в срок и между сроками (в фигурных скобках) и направление, откуда дует ветер: С - северный, СВ - северо-восточный, В - восточный, ЮВ - юго-восточный, Ю - южный, ЮЗ - юго-западный, З - западный, СЗ - северо-западный.
Видимость - горизонтальная дальность видимости в метрах или километрах. При видимости от 1 до 10 км при отсутствии осадков обычно наблюдается дымка, при ухудшении видимости до 1 км и менее - туман. В сухую погоду видимость может ухудшаться дымом, пылью или мглою.
Явления - указаны атмосферные явления, наблюдавшиеся в срок или в последний час перед сроком; фигурными скобками обозначены явления, наблюдавшиеся между сроками (за 1-3 часа до срока); квадратными скобками обозначены град или гололедные отложения с указанием их диаметра в мм.
Облачность - указаны через наклонную черту общая и нижняя облачность в баллах и высота нижней границы облаков в метрах; квадратными скобками обозначены формы облаков: Ci - перистые, Cs - перисто-слоистые, Cc - перисто-кучевые, Ac - высококучевые, As - высокослоистые, Sc - слоисто-кучевые, Ns - слоисто-дождевые, Cu - кучевые, Cb - кучево-дождевые. Подробнее классификацию облаков см. в Атласе облаков (PDF).
T - Температура воздуха - температура, измеренная на высоте 2 м над землей.
Td - Температура точки росы - температура, при понижении до которой содержащийся в воздухе водяной пар достигнет насыщения.
f - Относительная влажность воздуха - влажноcть воздуха, измеренная на высоте 2 м над землей.
Te - Эффективная температура - температура, которую ощущает одетый по сезону человек в тени. Характеристика душности погоды. При расчете учитывается влияние влажности воздуха и скорости ветра на теплоощущения человека.
Tes - Эффективная температура на солнце - температура, которую ощущает человек, с поправкой на солнечный нагрев. Характеристика знойности погоды. Зависит от высоты солнца над горизонтом, облачности и скорости ветра. Ночью, в пасмурную погоду, а также при ветре 12 м/с и более поправка равна нулю.
P - Атмосферное давление - приведенное к уровню моря атмосферное давление.
Po - Атмосферное давление - измеренное на уровне метеостанции атмосферное давление.
Tmin - Минимальная температура - минимум температуры воздуха на высоте 2 м над землей.
Tmax - Максимальная температура - максимум температуры воздуха на высоте 2 м над землей.
R - Количество осадков - Количество выпавших осадков за период времени, мм. При наведении курсора мыши на число - период времени, за который выпало указанное количество осадков.
R24 - Количество осадков - Количество выпавших осадков за 24 часа, мм.
S - Снежный покров - Высота снежного покрова, см. При наведении курсора мыши на число - состояние снежного покрова и степень покрытия местности в баллах.